LUR-1

Last updated on Mon Sep 16 2024 00:02:03 GMT+0000 (Coordinated Universal Time)

1 60506U 24149AQ 24258.89549607 .00010906 00000+0 52903-3 0 9993 2 60506 97.4402 334.0080 0005902 51.5848 308.5915 15.18657026 4411
UTC large
Height (km)
Speed (km/s)
/
Latitude / Longitude
Inclination (degrees)
Orbital Period (minutes)
Azimuth
Elevation
Range (km)
Doppler Factor

Next 0 passes for location: London (51.5072 / 0.1276)

Sorry there are no passes over London.